Theta_e
321 324 325 327 329 325 324 322 322 322 321 321 322 323 323 323 325 327 316 315 318 320 323 325 326 328 330 331 333 335 335 335 335 336 335 335 336 335 334 334 334 335 337 338 339 339 339 339 337
322 323 325 329 328 327 324 323 321 321 321 319 319 320 321 323 320 317 315 310 316 318 320 321 322 323 325 328 330 330 331 332 333 332 332 332 330 330 330 332 332 334 336 337 338 338 337 337 335
322 322 330 328 326 323 323 322 321 320 319 319 320 318 321 322 318 318 311 309 314 316 317 317 318 319 320 322 324 324 325 326 326 327 327 327 326 325 324 325 325 327 328 328 330 332 334 333 334
321 322 322 322 323 322 321 321 320 319 318 318 319 320 316 315 316 316 307 306 311 313 314 313 315 316 316 316 317 317 316 318 318 321 320 317 316 316 316 316 317 319 322 324 325 327 327 327 328
319 324 324 323 322 321 320 320 320 320 320 319 318 320 318 312 311 309 305 304 306 309 310 310 309 311 312 312 312 312 311 311 311 314 312 310 307 307 305 308 306 306 306 312 319 322 322 324 326
323 322 324 324 323 321 320 319 319 320 320 318 317 319 319 312 308 308 305 304 303 304 305 305 303 305 306 306 306 307 308 307 305 303 302 300 298 298 298 300 304 299 299 300 307 307 310 316 320
324 325 325 324 322 322 321 319 319 320 320 319 318 319 316 311 309 306 305 303 302 302 301 302 302 299 298 300 301 304 304 302 299 296 296 296 296 296 296 296 296 297 297 297 298 298 299 300 302
321 322 323 323 322 322 319 318 317 319 319 315 316 319 320 313 309 305 304 303 302 301 301 301 300 300 301 298 295 296 296 296 295 295 295 298 300 298 296 295 295 295 295 296 296 296 297 297 297
321 322 324 323 321 322 318 318 316 314 317 315 315 316 312 312 306 304 303 303 302 300 300 300 300 300 300 299 295 295 295 295 296 298 296 300 300 298 299 295 295 295 295 295 296 297 296 297 302
321 324 323 321 320 320 319 318 319 315 316 316 315 314 308 309 305 305 305 304 303 301 300 299 299 299 299 297 298 299 297 298 297 297 298 298 299 296 296 297 296 295 295 297 298 299 299 300 302
322 322 321 320 318 317 318 317 317 316 318 319 318 317 310 309 306 306 306 306 304 302 300 299 299 299 299 297 299 299 299 298 298 297 296 296 298 296 296 296 296 295 296 297 296 297 298 298 301
321 321 319 319 317 317 317 317 317 316 318 316 317 317 313 310 308 307 308 307 305 303 300 298 298 298 299 298 298 299 299 298 298 297 294 297 297 295 295 295 295 295 296 296 295 295 295 297 298
320 320 318 317 317 316 317 316 317 318 318 317 315 312 313 311 310 308 308 307 305 302 300 298 298 298 298 298 298 298 298 297 297 297 294 294 295 294 294 295 295 295 295 294 294 294 295 295 297
319 318 318 318 318 317 316 317 315 318 317 317 317 313 312 312 311 310 308 307 305 301 299 298 297 297 297 297 297 297 297 296 296 296 294 292 293 292 293 293 294 294 293 293 293 293 293 294 295
316 317 319 319 317 316 315 317 317 317 315 315 315 314 313 312 311 310 309 307 304 301 299 298 297 297 296 297 297 296 296 295 295 294 292 291 291 291 291 292 292 292 292 291 292 292 293 293 294
317 318 319 320 317 316 316 317 317 317 316 315 316 316 313 312 311 310 309 306 304 301 299 298 296 296 296 296 296 295 295 294 294 293 293 291 291 290 290 291 291 291 291 290 291 291 292 292 293
320 320 320 321 317 317 316 317 317 317 315 315 315 315 315 313 311 309 308 306 304 301 299 297 295 295 295 295 294 294 294 294 293 293 292 291 290 289 289 289 289 289 290 290 290 290 290 291 291
318 318 319 320 319 316 317 316 316 316 316 316 315 315 315 316 313 309 308 306 303 300 298 297 295 295 295 294 294 293 293 293 292 292 291 290 289 288 288 288 289 289 289 289 290 289 290 290 291
318 318 317 317 318 316 317 317 317 317 317 317 316 316 315 315 315 309 307 305 302 299 298 297 295 295 294 294 294 293 293 293 292 291 290 289 288 288 288 288 288 288 288 288 288 289 289 290 290
317 318 317 318 318 314 316 316 316 317 317 316 315 315 315 315 313 309 306 303 300 298 297 296 295 295 294 294 293 293 293 292 292 291 290 289 288 288 287 286 287 287 287 288 288 288 288 289 289
316 317 318 318 319 314 314 316 316 316 314 314 313 313 313 314 314 309 306 302 300 297 297 296 295 294 294 293 292 291 290 289 289 290 289 289 288 287 286 286 286 286 286 287 287 287 287 287 288
317 317 318 318 318 319 314 318 317 316 316 314 313 313 314 312 312 309 305 302 299 298 297 295 295 294 293 292 291 290 290 291 291 291 290 288 287 286 285 285 285 285 285 286 286 286 286 286 287
317 312 315 316 317 319 317 318 317 311 313 313 313 315 316 314 311 308 305 301 299 297 296 295 294 293 293 291 290 290 290 290 291 289 288 287 287 286 285 285 284 284 284 285 285 285 285 285 285
310 312 312 312 315 319 317 318 317 316 313 313 314 314 315 312 310 307 304 301 299 297 296 295 294 293 292 291 290 290 290 290 289 288 287 287 286 285 285 284 283 283 283 283 284 284 284 284 284
311 316 318 323 323 322 317 316 317 316 313 313 313 314 314 311 310 307 304 301 299 297 295 295 294 293 291 290 289 289 289 289 288 288 287 286 286 285 284 283 283 282 282 282 281 282 282 282 283
313 316 321 326 320 320 313 317 315 315 314 312 312 311 311 310 309 307 305 301 299 297 295 294 294 293 291 290 289 288 288 287 287 286 285 284 284 283 282 281 281 280 280 280 280 280 281 281 281
314 314 315 321 321 321 316 317 317 315 313 312 311 310 310 309 308 307 304 301 299 297 295 294 294 293 291 289 289 288 286 286 285 284 283 283 282 281 281 280 279 279 279 279 279 279 279 280 280
310 311 315 316 324 321 317 318 317 315 313 312 311 311 312 310 308 307 305 301 299 297 295 294 294 292 291 289 288 287 285 284 283 283 282 281 281 280 279 279 278 278 278 278 278 278 278 279 279
309 311 310 310 317 319 318 316 312 314 313 313 313 312 313 312 310 307 304 301 299 297 295 294 294 292 291 288 287 285 284 283 282 281 280 280 279 279 278 277 277 277 277 276 276 277 277 277 276
311 312 313 315 315 314 315 316 313 313 312 311 311 312 312 312 311 309 306 302 299 297 296 295 293 292 291 288 286 284 283 281 280 280 279 279 278 278 277 276 276 275 275 275 275 275 275 274 274
Wind_Speed
2 2 3 5 5 5 4 4 1 6 5 4 4 5 5 3 2 1 7 7 9 7 7 7 8 5 4 3 2 4 5 5 7 9 8 8 9 7 7 7 5 6 8 8 9 9 9 9 9
3 3 5 3 6 7 3 6 7 7 7 7 4 2 4 5 4 8 10 7 8 8 7 7 8 10 10 7 6 2 2 3 8 7 8 10 11 11 11 11 10 11 12 11 11 10 10 10 11
3 5 4 4 5 7 5 4 5 8 8 8 6 4 3 1 4 12 8 11 10 8 7 6 8 9 9 10 9 7 4 7 4 2 9 7 3 7 9 10 10 9 10 10 10 9 10 11 11
3 5 4 6 10 4 4 3 5 9 5 3 2 5 3 4 7 8 13 11 10 9 7 8 9 8 8 9 10 10 11 11 10 11 9 7 6 6 7 8 9 11 12 12 12 11 12 14 12
6 4 6 7 8 3 1 1 6 9 7 7 6 1 1 6 7 13 14 12 11 10 8 6 9 7 7 7 7 7 7 8 8 9 9 7 7 7 8 9 10 11 12 13 13 12 14 15 15
5 4 6 8 3 0 2 4 7 9 7 6 6 9 2 10 15 16 14 12 10 10 9 6 6 7 7 6 5 6 7 7 7 6 5 6 7 8 9 9 10 12 13 13 12 14 16 18 18
8 6 10 8 9 5 5 6 11 9 11 10 1 6 3 12 16 16 15 12 10 9 9 8 6 5 5 5 6 7 7 7 7 7 6 7 8 8 9 8 9 9 10 11 11 14 17 18 18
4 4 7 4 5 6 4 7 3 11 10 4 5 5 8 15 19 17 15 13 12 10 8 8 7 6 5 3 5 6 7 7 7 8 8 11 11 11 13 12 13 13 13 13 13 14 15 16 16
2 5 7 5 5 2 3 8 5 4 7 4 8 7 5 16 21 19 17 16 14 12 12 11 10 9 7 6 6 7 8 6 6 6 7 7 6 7 8 12 13 14 14 15 16 16 16 15 15
4 6 6 1 4 5 4 9 8 5 11 14 13 11 6 20 22 23 23 22 20 18 16 13 11 9 8 6 6 5 4 3 3 3 4 5 6 10 11 12 15 14 15 15 16 16 15 14 13
4 6 4 6 6 6 8 9 9 9 14 14 16 14 16 20 22 23 24 23 24 21 17 16 14 13 12 10 7 5 4 3 1 2 4 5 6 9 10 11 13 15 14 14 16 15 14 16 15
5 11 8 1 3 4 9 6 7 17 18 2 4 8 17 19 21 26 26 26 24 23 20 17 15 14 13 10 8 7 5 3 2 1 2 4 5 8 9 10 12 13 13 14 14 15 16 15 15
9 9 6 8 6 9 9 13 12 17 17 16 9 6 14 17 24 26 26 25 24 25 22 20 18 15 13 12 10 8 7 5 4 2 0 3 3 5 6 8 8 10 11 13 15 15 17 18 16
5 8 12 9 12 9 9 14 3 11 9 16 17 16 16 19 23 24 27 28 28 25 25 22 20 18 15 13 12 10 9 8 5 4 2 1 2 4 5 7 8 9 11 13 14 15 16 16 17
5 9 13 15 11 7 6 10 18 19 9 11 13 15 16 19 24 28 29 29 30 28 25 24 21 19 17 15 13 11 10 8 7 5 3 1 2 4 6 6 8 9 11 12 12 13 13 14 15
6 6 11 2 10 5 8 18 12 7 10 14 17 17 17 19 23 27 28 30 30 28 28 25 22 20 18 16 14 11 10 8 7 5 4 3 3 5 5 7 7 10 11 12 14 14 16 16 16
10 11 15 16 14 4 13 15 8 3 9 17 18 19 18 19 21 26 27 29 30 30 28 26 23 21 19 16 13 11 10 8 7 6 5 4 4 6 6 7 9 12 12 12 12 13 14 17 19
17 17 15 15 9 13 15 21 21 21 20 21 23 23 21 20 20 24 27 28 29 29 28 27 25 22 20 16 14 11 10 9 7 7 6 5 4 5 7 8 9 10 10 11 12 15 16 17 20
22 21 23 24 8 9 19 23 22 22 21 23 23 22 21 19 12 20 26 28 28 28 29 28 26 24 21 18 15 12 12 11 11 9 9 7 4 6 9 10 10 9 11 13 14 14 16 17 18
20 20 25 21 7 5 16 22 21 22 25 24 22 22 17 14 12 15 23 26 28 29 29 29 27 24 23 19 17 12 14 12 11 10 9 7 8 10 11 11 10 10 11 13 14 13 15 15 10
18 21 22 21 13 13 14 19 17 14 15 17 20 18 14 14 14 16 20 28 28 30 31 31 29 27 25 20 17 13 11 10 10 10 9 9 10 11 11 11 11 11 11 14 13 12 12 14 13
19 12 18 19 11 14 1 17 15 15 18 13 19 18 14 11 10 14 18 25 30 30 30 30 30 29 27 24 21 21 18 14 14 11 9 10 9 11 11 11 12 12 12 14 14 12 12 13 15
8 2 5 8 12 17 16 15 14 6 9 13 18 19 12 10 12 17 18 25 29 30 32 32 31 29 27 27 25 24 19 15 11 9 9 11 11 12 11 12 11 11 13 15 15 15 14 14 16
7 2 3 4 5 12 20 18 8 7 6 8 13 13 7 8 12 14 19 23 25 28 30 32 32 31 30 29 28 24 20 17 15 14 12 11 10 9 10 11 11 12 14 15 15 15 16 17 18
9 6 6 9 6 16 13 12 19 11 13 15 21 15 5 10 13 15 17 17 23 30 33 32 34 34 33 31 29 27 23 20 18 15 14 11 9 10 10 10 11 13 14 16 17 18 19 19 20
14 10 6 11 15 24 5 13 12 13 12 12 11 3 6 11 12 14 16 17 23 27 31 33 34 34 33 30 28 26 24 22 20 17 13 12 12 12 11 12 14 15 16 17 18 20 20 20 21
9 8 3 8 1 8 16 26 19 6 10 11 6 7 12 11 12 14 15 20 23 27 33 35 32 33 34 33 30 29 26 24 20 17 15 14 14 13 13 14 14 16 17 18 18 20 20 21 21
6 2 5 5 6 16 27 24 17 10 14 9 8 11 12 10 13 12 13 17 23 26 30 32 34 35 34 33 33 31 28 25 21 18 18 16 13 12 12 14 15 16 16 17 17 18 19 20 22
7 7 7 4 10 11 17 12 6 2 5 2 7 8 8 9 11 12 12 18 23 25 29 32 34 34 35 34 32 30 27 26 23 21 18 15 13 13 14 15 15 16 15 15 17 18 20 21 23
12 19 21 10 16 9 14 27 6 4 5 3 7 7 9 5 10 12 13 17 21 25 26 29 32 34 36 34 32 30 27 26 22 19 17 16 16 14 14 12 14 15 14 15 17 18 19 21 24
Wind_Direction
162 225 254 242 244 232 225 194 67 164 168 110 213 173 241 332 235 352 138 131 123 106 85 56 67 87 99 114 99 99 97 86 73 63 57 56 56 41 30 13 7 5 6 351 343 337 330 324 319
222 232 234 274 255 252 116 139 189 175 89 151 149 217 246 234 91 121 147 145 130 112 98 77 76 70 71 80 86 112 112 85 59 58 56 54 48 46 42 41 35 28 22 16 8 351 326 315 310
213 240 259 242 267 281 352 166 166 121 139 171 179 262 306 50 120 148 132 144 136 120 106 96 87 77 79 82 83 81 87 81 80 10 61 69 350 356 28 28 13 345 335 333 340 343 343 317 316
239 203 233 249 262 298 306 166 141 148 158 211 237 207 140 47 153 156 149 145 147 135 124 117 102 89 86 87 85 82 81 84 79 80 73 57 24 10 6 4 359 337 330 329 340 349 330 309 303
238 255 255 247 276 290 243 297 170 181 163 176 196 221 208 161 141 151 154 151 152 147 133 120 135 120 102 96 92 86 85 80 79 81 71 58 43 34 29 18 6 356 348 344 352 347 328 312 309
244 278 252 264 324 234 237 194 195 207 185 132 209 250 234 151 166 167 166 163 160 155 157 154 172 161 154 136 132 114 97 89 89 88 74 56 44 41 39 24 16 0 346 337 336 322 317 311 310
263 267 279 295 283 261 228 182 206 217 220 208 299 234 100 176 179 170 170 169 165 164 166 169 166 174 170 156 130 117 108 103 89 89 83 74 62 50 43 34 25 15 5 357 340 327 316 312 311
275 268 278 254 292 282 155 190 289 232 243 93 174 234 231 183 176 173 176 179 179 179 178 174 170 161 149 129 138 128 115 103 92 82 75 65 34 38 18 22 14 10 3 357 351 344 337 335 327
256 254 266 279 263 1 143 214 171 359 246 204 198 263 75 152 167 176 183 189 190 191 188 185 183 177 164 148 139 109 104 94 75 49 54 43 39 30 27 15 8 6 2 360 357 351 347 350 348
244 262 295 330 277 268 209 234 231 219 217 230 234 222 165 165 178 187 193 197 198 197 194 190 184 178 169 168 161 156 135 133 107 75 53 46 32 18 23 8 9 5 2 6 356 353 359 349 341
190 252 351 267 255 265 259 242 218 229 249 236 238 223 187 189 196 203 206 206 204 201 196 192 186 182 179 183 178 177 180 171 137 58 46 29 25 19 13 5 359 358 351 355 352 351 348 344 337
258 244 249 284 228 245 244 271 236 230 240 105 312 280 173 198 206 211 212 211 205 202 198 193 189 186 185 182 180 186 181 176 145 50 49 40 29 16 11 1 355 352 347 344 341 339 336 335 331
246 276 245 246 226 240 257 248 254 260 250 257 221 224 200 207 215 217 218 214 208 204 199 194 189 187 187 182 187 184 183 177 179 165 353 69 34 13 3 351 348 344 340 339 338 336 334 331 331
354 277 266 257 250 242 234 258 253 254 254 243 236 225 225 216 217 215 214 212 207 202 201 194 192 189 187 187 188 186 182 187 174 170 183 20 49 7 354 346 344 338 335 334 330 327 327 325 323
282 282 272 247 242 242 206 251 234 251 220 223 230 234 229 224 219 216 213 211 206 203 199 197 192 190 189 189 187 185 186 183 176 182 213 253 358 347 343 337 336 333 327 326 322 322 321 320 317
260 257 271 217 180 185 198 266 247 238 196 232 244 237 232 229 225 221 212 208 205 200 199 196 193 190 189 188 187 188 192 187 183 190 206 247 304 325 334 331 336 323 324 326 326 327 326 319 319
209 267 268 263 191 163 210 267 286 195 237 263 260 256 241 231 229 228 218 208 202 200 197 194 193 191 189 189 190 192 192 191 190 201 209 237 296 313 326 322 311 314 317 318 317 316 317 311 312
290 287 270 261 197 217 234 249 271 275 271 271 268 262 258 250 226 221 220 209 202 199 197 196 194 192 190 189 190 193 197 195 199 210 214 239 265 299 310 312 315 310 308 307 304 304 307 309 311
274 283 276 272 272 219 246 260 269 275 277 273 275 273 264 252 225 215 211 203 198 197 197 197 194 193 189 192 193 198 201 200 204 208 216 229 248 285 294 297 293 289 288 290 295 303 311 315 317
264 265 267 273 287 213 271 270 268 268 268 274 274 270 272 262 188 207 198 195 196 195 197 197 198 195 194 196 197 200 199 205 206 201 215 224 247 268 272 277 275 279 290 291 294 302 305 309 321
247 250 260 272 296 231 273 275 259 249 257 261 268 264 265 251 211 197 192 195 195 200 197 198 197 196 197 196 191 190 190 201 207 215 219 227 244 260 266 266 279 292 289 287 290 294 297 298 304
261 261 253 268 280 274 82 287 280 286 264 246 268 271 262 215 198 194 191 193 198 200 198 198 199 198 198 195 194 196 203 206 208 197 202 227 253 259 261 271 279 277 278 280 283 287 289 292 293
239 348 249 256 257 279 261 270 277 171 263 232 248 266 269 181 195 190 187 193 198 197 197 197 198 199 198 197 198 199 204 206 200 207 225 244 252 259 264 272 275 278 279 275 278 282 281 278 275
124 219 221 229 267 257 260 243 283 217 214 235 251 243 266 186 184 191 187 189 195 194 196 195 196 198 198 199 202 202 202 197 199 208 220 231 240 255 267 272 272 274 275 280 286 286 283 279 277
204 213 271 256 225 264 280 260 255 271 246 254 263 268 186 173 180 181 184 186 190 192 193 197 195 198 199 199 199 201 201 201 207 211 220 230 247 259 260 263 274 280 284 289 291 286 279 277 273
198 214 222 267 266 282 112 263 265 234 232 246 252 224 197 190 187 187 188 190 192 192 194 201 201 199 197 198 200 200 200 202 206 210 215 224 236 249 260 270 279 280 282 282 282 281 282 281 279
167 201 254 273 237 280 267 267 262 163 202 230 226 225 227 206 196 196 194 195 196 193 198 201 204 202 197 196 196 198 198 199 200 202 210 220 232 243 254 264 273 279 282 283 284 285 288 287 286
237 92 189 201 259 259 278 278 277 243 229 212 233 238 250 216 213 213 204 198 198 198 201 202 204 203 200 196 196 195 193 196 198 197 208 216 227 240 256 263 267 272 277 281 284 284 282 281 279
188 223 220 293 239 251 270 268 54 5 151 270 224 243 243 217 211 213 207 201 202 200 199 202 202 201 199 197 194 191 190 191 195 200 205 216 226 236 249 259 268 272 276 278 278 276 279 281 282
255 232 218 219 229 235 254 271 146 142 108 189 242 218 263 247 224 221 203 200 201 202 201 202 201 202 200 195 192 188 185 185 193 198 203 213 226 238 248 256 262 267 270 275 277 283 284 285 283